CAPE
0 0 0 0 0 0 0 53 17 0 44 184 305 800 640 265 27 5 0 0 29 660 1505 2183 2273 2002 1689 1743 1915 2048 2184 2344 2226 2006 1847 1829 1693 1236 1239 1452 1456 1237 719 663 730 867 959 935 834
0 0 0 0 0 5 0 0 28 5 50 95 274 144 178 295 65 0 0 0 89 668 994 1842 2365 2125 2003 1966 2021 2133 2276 2339 2137 2001 1834 1661 1526 1282 997 1115 1028 927 616 784 920 945 880 758 600
0 0 0 0 0 0 0 7 0 1 219 267 408 364 91 12 177 33 1 0 52 176 672 1712 2447 2342 2243 2171 2153 2246 2322 2301 2013 1690 1560 1357 1335 1046 847 727 599 837 923 946 965 1054 931 730 527
0 0 0 0 0 0 54 5 22 40 63 74 198 127 27 0 38 76 1 0 0 22 733 1998 2422 2441 2360 2272 2273 2273 2273 2207 1977 1499 1288 1279 1106 827 604 531 641 963 1024 1037 1015 1048 727 534 628
0 0 0 0 0 35 89 78 28 47 91 26 1 184 92 29 337 84 0 0 0 103 904 1528 2213 2403 2393 2038 2015 2191 2138 1958 1812 1590 1241 1168 1070 756 607 495 750 954 972 619 576 651 261 129 274
0 0 0 0 0 70 42 7 36 0 17 26 11 153 96 263 513 394 30 5 41 143 881 1237 1857 2089 2139 2072 2040 1927 1755 1648 1629 1539 1381 1163 958 900 782 725 992 1238 1075 301 250 193 32 29 45
0 0 0 0 0 24 15 15 6 27 2 99 70 160 68 21 431 575 451 525 103 151 444 825 1165 1405 1745 1799 1684 1599 1498 1384 1280 1198 1126 1151 1233 1149 1026 1101 1309 1462 1059 266 7 0 10 134 365
0 0 0 0 0 0 63 56 0 0 45 95 56 245 78 61 3 913 1279 741 176 165 448 563 776 815 992 1139 1660 1592 1508 1401 1325 1322 1340 1358 1416 1389 1435 1264 1432 1692 1253 504 108 173 420 511 629
0 0 0 0 0 21 39 17 26 49 9 63 81 110 135 78 96 971 855 686 582 359 233 315 471 547 705 885 1132 1742 1387 1523 1488 1393 1458 1137 698 697 1029 1387 1650 1762 1313 650 516 589 653 1021 812
0 0 0 0 0 0 3 55 63 77 33 129 85 294 185 88 62 534 484 651 492 373 238 187 242 242 415 757 912 744 657 652 559 415 65 159 33 158 535 1061 1663 1553 1337 952 679 602 144 0 0
0 0 0 0 0 0 14 114 44 4 30 109 38 129 31 46 0 82 219 572 385 232 225 314 143 178 207 527 443 70 96 204 118 0 0 0 0 0 32 2 5 15 10 0 0 0 0 0 0
0 0 0 0 0 0 43 85 40 0 5 95 65 134 29 34 0 0 0 418 302 185 233 221 81 60 56 60 46 0 2 28 0 0 0 0 0 0 0 0 0 0 0 0 0 0 0 0 0
0 0 0 0 0 0 20 54 42 4 2 37 82 61 65 119 1 0 0 0 53 129 146 77 0 0 0 3 0 69 130 0 0 0 0 0 0 0 0 0 0 0 0 0 0 0 0 0 0
0 0 0 0 0 0 3 2 0 0 4 18 24 11 23 137 3 9 0 0 0 0 3 0 0 18 23 0 0 4 0 0 0 0 0 0 0 0 0 0 0 0 0 0 0 0 0 0 0
0 0 0 0 0 0 0 12 21 0 0 7 58 19 18 41 0 0 0 0 0 0 0 0 48 25 70 0 0 0 0 16 0 0 0 0 0 0 0 0 0 0 0 0 0 0 0 0 0
0 0 0 0 0 0 0 0 0 0 4 45 68 39 26 31 13 226 102 1 0 34 124 47 147 33 0 0 0 0 0 0 0 0 0 0 0 0 0 0 0 0 0 0 0 0 0 0 0
0 0 0 0 0 0 0 0 0 0 11 45 39 61 66 218 371 281 226 4 0 56 678 303 238 161 94 35 6 0 0 0 0 0 0 0 0 0 0 0 0 0 0 0 0 0 0 0 0
0 0 0 0 0 0 0 0 0 12 7 7 11 29 153 326 307 304 233 9 1 1 1032 852 349 300 233 34 1 0 0 0 0 0 0 0 0 0 0 0 0 0 0 0 0 0 0 0 0
0 0 0 0 0 0 0 0 0 1 9 20 524 363 319 313 234 272 163 55 82 697 854 912 954 927 636 164 0 0 0 0 0 0 0 0 0 0 0 0 0 0 0 0 0 0 0 0 0
0 0 0 0 0 0 0 0 0 0 6 232 600 396 301 131 78 139 124 1 153 363 263 370 518 312 327 132 35 5 0 0 0 0 0 0 0 0 0 0 0 0 0 0 0 0 0 0 0
0 0 0 0 0 0 0 0 0 242 207 289 629 437 229 120 88 64 2 0 93 321 142 51 22 19 23 2 0 0 0 0 0 0 0 0 0 0 0 0 0 0 0 0 0 0 0 14 0
0 0 0 0 0 0 0 0 0 130 459 216 76 277 177 105 39 19 0 0 64 67 0 0 0 0 4 8 0 0 0 0 0 0 0 0 0 0 0 0 0 0 0 0 0 0 0 3 3
0 0 0 0 0 0 0 0 0 55 163 453 43 5 50 59 352 291 43 13 24 0 0 0 0 0 0 0 0 0 0 0 0 0 0 0 0 0 0 0 0 0 0 0 0 0 0 0 4
0 0 0 0 0 0 0 0 0 0 191 428 101 0 22 540 450 248 48 0 0 0 0 0 0 0 0 0 0 0 0 0 0 0 0 0 0 0 0 0 0 0 0 0 0 0 0 0 18
0 0 0 0 0 0 0 0 0 0 137 616 467 365 452 70 17 1 0 0 0 0 0 0 0 0 0 0 0 0 0 0 0 0 0 0 0 0 0 0 0 0 0 0 0 0 1 6 6
0 0 0 0 0 0 0 0 0 0 0 609 286 30 0 0 0 0 0 0 0 0 0 0 0 0 0 0 0 0 0 0 0 0 0 0 0 0 0 0 0 0 0 0 0 0 0 0 0
0 0 0 0 0 0 0 0 76 0 0 0 0 0 0 0 0 0 0 0 0 0 0 0 0 0 0 0 0 0 0 0 0 0 0 0 0 0 0 0 0 0 0 0 0 0 0 0 0
0 0 0 0 0 0 0 0 33 0 0 0 0 0 0 0 0 0 0 0 0 0 0 0 0 0 0 0 0 0 0 0 0 0 0 0 0 0 0 0 0 0 0 0 0 0 0 0 0
0 0 0 0 0 0 0 0 0 31 0 0 0 0 0 0 0 0 0 0 0 0 0 0 0 0 0 0 0 0 0 0 0 0 0 0 0 0 0 0 0 0 0 0 0 0 0 0 0
0 0 0 0 0 0 0 0 0 11 0 0 0 0 0 0 0 0 0 0 0 0 0 0 0 0 0 0 0 0 0 0 0 0 0 0 0 0 0 0 0 0 0 0 0 0 0 0 0
CIN
0 0 0 0 0 -8 -157 -361 -419 -53 -290 -125 -123 -107 -135 -183 -164 -64 0 0 -616 -281 -125 -43 -53 -79 -96 -87 -49 -33 -21 -9 -9 -7 -4 -1 -1 -28 -25 -6 -4 -16 -61 -65 -59 -46 -45 -53 -67
0 0 0 0 0 -172 -54 0 -372 -50 -273 -197 -155 -206 -209 -208 -331 0 0 -393 -541 -314 -198 -83 -43 -64 -60 -56 -53 -33 -10 -2 -1 -1 -1 -6 -14 -27 -50 -37 -42 -46 -75 -58 -52 -60 -69 -87 -107
0 0 0 0 0 0 0 -245 -1 -82 -202 -144 -129 -144 -237 -414 -406 -530 -59 0 -606 -454 -267 -104 -49 -49 -50 -54 -44 -19 -2 0 -2 -15 -16 -32 -22 -41 -63 -75 -90 -60 -55 -60 -66 -67 -86 -112 -130
0 0 0 0 0 0 -189 -301 -289 -271 -244 -194 -120 -146 -298 -10 -389 -453 -245 0 0 -613 -272 -92 -61 -53 -49 -43 -33 -15 -5 -1 -6 -38 -46 -41 -50 -80 -108 -113 -103 -71 -67 -72 -80 -90 -127 -146 -139
0 0 0 0 0 -239 -266 -272 -211 -210 -184 -219 -13 -197 -273 -384 -351 -525 0 0 -34 -500 -268 -160 -81 -50 -38 -53 -46 -17 -17 -19 -19 -37 -63 -60 -68 -107 -123 -136 -109 -95 -101 -135 -144 -141 -190 -215 -185
0 0 0 0 0 -154 -291 -308 -190 0 -119 -238 -253 -198 -251 -368 -305 -327 -456 -277 -582 -498 -287 -186 -91 -61 -50 -38 -35 -39 -57 -59 -41 -54 -62 -76 -100 -107 -121 -129 -110 -99 -117 -193 -197 -207 -264 -280 -254
0 0 0 0 0 -177 -196 -387 -290 -392 -144 -230 -292 -186 -267 -348 -227 -210 -243 -248 -427 -443 -368 -264 -191 -130 -63 -62 -85 -87 -100 -100 -107 -110 -116 -108 -100 -107 -123 -120 -106 -92 -124 -204 -61 -9 -243 -212 -164
0 0 0 0 0 -3 -320 -320 -1 0 -238 -362 -176 -66 -190 -247 -51 -143 -177 -261 -395 -440 -348 -320 -256 -223 -188 -174 -95 -109 -112 -117 -119 -118 -108 -102 -97 -104 -102 -117 -97 -74 -102 -165 -221 -208 -154 -127 -110
0 0 0 0 0 -207 -305 -307 -388 -288 -241 -171 -171 -162 -130 -261 -418 -147 -182 -229 -265 -333 -433 -401 -340 -311 -280 -243 -194 -114 -138 -130 -121 -123 -111 -144 -206 -212 -165 -124 -88 -65 -84 -131 -141 -128 -109 -63 -85
0 0 0 0 0 0 -132 -324 -357 -350 -244 -169 -157 -128 -139 -212 -149 -173 -236 -239 -297 -347 -448 -509 -465 -449 -372 -248 -240 -272 -275 -256 -265 -296 -148 -356 -155 -349 -219 -153 -61 -56 -47 -68 -85 -106 -58 0 0
0 0 0 0 0 0 -261 -330 -437 -457 -316 -203 -138 -193 -228 -249 0 -285 -322 -332 -353 -379 -387 -439 -506 -523 -465 -291 -380 -525 -468 -402 -430 0 0 0 0 0 -45 -46 -52 -51 -49 0 0 0 0 0 0
0 0 0 0 0 0 -299 -367 -403 0 -384 -332 -330 -251 -318 -343 0 0 0 -274 -344 -479 -441 -444 -549 -545 -481 -490 -454 0 -64 -511 0 0 0 0 0 0 0 0 0 0 0 0 0 0 0 0 0
0 0 0 0 0 0 -197 -277 -282 -251 -170 -440 -419 -329 -316 -297 -131 0 0 0 -454 -428 -431 -443 0 0 0 -202 0 -499 -469 0 0 0 0 0 0 0 0 0 0 0 0 0 0 0 0 0 0
0 0 0 0 0 0 -83 -69 0 0 -135 -399 -444 -370 -315 -281 -123 -407 0 0 0 0 -170 0 0 -320 -551 0 0 -100 0 0 0 0 0 0 0 0 0 0 0 0 0 0 0 0 0 0 0
0 0 0 0 0 0 0 -261 -196 0 0 -418 -447 -411 -384 -341 -31 0 0 0 0 0 0 0 -470 -533 -494 0 0 0 0 -588 0 0 0 0 0 0 0 0 0 0 0 0 0 0 0 0 0
0 0 0 0 0 0 0 0 0 0 -260 -416 -411 -315 -273 -611 -173 -495 -666 -43 0 -469 -400 -367 -245 -436 0 0 -69 0 0 0 0 0 0 0 0 0 0 0 0 0 0 0 0 0 0 0 0
0 0 0 0 0 0 0 0 0 0 -340 -411 -391 -277 -360 -621 -579 -480 -492 -352 0 -329 -375 -313 -370 -416 -416 -433 -206 0 0 0 0 0 0 0 0 0 0 0 0 0 0 0 0 0 0 0 0
0 0 0 0 0 0 0 0 0 -358 -429 -389 -370 -214 -346 -481 -521 -544 -642 -719 -82 -84 -408 -367 -447 -408 -457 -556 -307 0 0 0 0 0 0 0 0 0 0 0 0 0 0 0 0 0 0 0 0
0 0 0 0 0 0 0 0 0 -116 -407 -303 -480 -504 -331 -536 -631 -632 -597 -712 -781 -479 -401 -394 -327 -291 -337 -546 -2 0 0 0 0 0 0 0 0 0 0 0 0 0 0 0 0 0 0 0 0
0 0 0 0 0 0 0 0 0 0 -115 -458 -562 -678 -712 -810 -867 -762 -666 -64 -710 -539 -533 -480 -401 -414 -393 -459 -491 -133 0 0 0 0 0 0 0 0 0 0 0 0 0 0 0 0 0 0 0
0 0 0 0 0 0 0 0 0 -372 -393 -435 -472 -602 -692 -819 -844 -929 -352 0 -833 -582 -643 -670 -557 -427 -578 -274 0 0 0 0 0 0 0 0 0 0 0 0 0 0 0 0 0 0 0 -9 0
0 0 0 0 0 0 0 0 0 -305 -324 -461 -611 -639 -743 -866 -951 -1021 0 0 -828 -766 0 0 0 0 -84 -432 0 0 0 0 0 0 0 0 0 0 0 0 0 0 0 0 0 0 0 -11 -21
0 0 0 0 0 0 0 0 0 -301 -297 -344 -622 -855 -879 -948 -721 -737 -999 -998 -790 0 0 0 0 0 0 0 0 0 0 0 0 0 0 0 0 0 0 0 0 0 0 0 0 0 0 0 -36
0 0 0 0 0 0 0 0 0 0 -288 -319 -530 0 -476 -594 -633 -709 -897 -46 0 0 0 0 0 0 0 0 0 0 0 0 0 0 0 0 0 0 0 0 0 0 0 0 0 0 0 0 -49
0 0 0 0 0 0 0 0 0 0 -346 -323 -471 -500 -478 -751 -889 -215 0 0 0 0 0 0 0 0 0 0 0 0 0 0 0 0 0 0 0 0 0 0 0 0 0 0 0 0 -53 -59 -25
0 0 0 0 0 0 0 0 0 0 0 -387 -497 -678 0 0 0 0 0 0 0 0 0 0 0 0 0 0 0 0 0 0 0 0 0 0 0 0 0 0 0 0 0 0 0 0 0 0 0
0 0 0 0 0 0 0 0 -143 0 0 0 0 0 0 0 0 0 0 0 0 0 0 0 0 0 0 0 0 0 0 0 0 0 0 0 0 0 0 0 0 0 0 0 0 0 0 0 0
0 0 0 0 0 0 0 0 -31 0 0 0 0 0 0 0 0 0 0 0 0 0 0 0 0 0 0 0 0 0 0 0 0 0 0 0 0 0 0 0 0 0 0 0 0 0 0 0 0
0 0 0 0 0 0 0 0 0 -233 0 0 0 0 0 0 0 0 0 0 0 0 0 0 0 0 0 0 0 0 0 0 0 0 0 0 0 0 0 0 0 0 0 0 0 0 0 0 0
0 0 0 0 0 0 0 0 0 -275 -161 0 0 0 0 0 0 0 0 0 0 0 0 0 0 0 0 0 0 0 0 0 0 0 0 0 0 0 0 0 0 0 0 0 0 0 0 0 0
Wind_Speed
5 4 2 5 5 5 2 6 3 1 5 4 2 9 8 4 4 4 2 11 16 14 9 12 15 15 15 15 14 14 13 12 12 11 10 10 9 9 9 8 7 7 7 7 7 7 8 8 8
2 4 5 2 6 3 6 4 8 5 3 10 7 5 7 3 5 9 6 11 12 14 7 9 14 15 15 15 14 13 13 12 11 11 9 9 8 7 7 7 6 5 5 5 5 5 4 4 5
1 2 4 4 4 4 5 8 7 15 14 3 3 4 4 3 10 8 10 14 12 9 7 10 15 15 15 15 14 13 12 11 11 10 8 8 6 6 6 5 4 4 4 4 3 3 3 4 4
2 5 4 4 3 4 2 10 3 5 11 12 2 6 5 4 9 9 16 15 12 8 7 12 14 14 14 14 14 13 12 11 10 10 8 7 6 6 5 4 4 3 2 1 1 1 2 4 5
3 4 4 4 4 3 4 10 12 10 7 8 18 2 4 3 15 20 16 13 13 9 7 9 13 13 13 13 13 12 11 9 9 9 8 7 6 6 5 4 4 3 3 4 4 4 4 6 7
4 3 5 1 0 1 4 6 1 8 6 17 12 18 2 11 20 15 15 13 12 14 7 7 12 11 12 12 11 10 9 9 8 7 7 7 6 6 6 6 6 7 7 7 6 5 6 8 9
5 4 4 5 6 4 5 2 11 10 10 3 4 8 2 8 14 15 14 13 10 9 9 7 6 9 11 10 10 10 9 8 8 7 8 8 7 7 7 9 8 8 9 8 6 6 8 10 10
5 5 3 4 1 6 2 4 9 9 4 8 5 6 8 5 11 14 12 11 11 9 7 6 6 6 6 6 10 10 9 9 9 9 8 7 7 7 9 9 9 9 10 8 8 8 10 10 10
3 4 4 6 2 6 8 7 7 5 4 6 6 8 8 11 15 14 12 8 7 7 7 7 8 7 7 6 8 10 13 11 10 8 8 7 4 6 8 8 9 10 10 9 9 10 9 8 8
5 4 7 7 4 10 11 13 13 5 8 4 14 10 8 8 16 16 15 13 12 12 12 11 12 10 8 7 6 6 6 4 4 4 4 4 5 5 6 7 8 11 10 10 7 11 11 8 3
3 6 9 14 10 15 17 8 8 12 2 18 20 19 7 3 13 18 17 18 18 16 12 13 11 11 11 7 4 2 3 3 4 5 4 4 1 2 2 3 2 4 8 4 6 5 3 6 5
3 10 7 12 6 7 15 10 5 6 11 20 12 18 14 5 14 12 16 17 14 14 16 13 11 11 9 5 5 3 3 4 4 4 4 3 3 5 4 3 5 5 4 4 4 3 5 7 7
6 8 8 11 7 8 18 16 10 10 10 19 13 10 13 10 6 4 9 14 14 13 13 14 11 12 7 8 5 5 4 3 2 3 3 4 5 5 3 4 4 4 3 4 6 6 6 6 6
7 5 10 9 12 7 13 6 7 6 8 13 11 12 12 11 5 5 5 5 9 10 12 9 11 10 9 6 7 5 4 3 4 4 4 7 5 5 5 5 4 5 4 4 4 4 5 4 4
5 6 9 6 5 3 14 3 11 12 11 12 13 17 19 11 9 6 9 12 9 5 3 10 8 10 12 7 7 5 5 6 5 4 6 7 6 6 6 4 4 4 4 6 5 5 4 4 5
6 3 4 8 3 8 9 12 15 18 13 14 14 14 15 10 12 9 11 14 15 13 10 3 3 10 11 10 7 5 5 6 5 5 5 6 6 6 5 4 4 4 4 4 4 3 3 4 4
6 4 6 11 2 4 5 11 5 20 18 16 13 5 10 10 11 6 6 14 13 13 9 9 8 7 8 7 8 8 8 7 5 5 4 5 5 5 4 4 4 4 4 4 3 2 1 3 4
5 3 6 7 12 5 10 13 9 22 20 16 7 8 16 14 15 12 15 12 7 11 7 4 6 5 12 10 7 8 7 6 4 4 4 4 2 4 5 4 4 4 3 3 2 2 2 2 3
5 5 9 14 16 8 9 13 11 18 12 7 9 7 16 16 13 7 5 7 14 13 10 3 12 7 4 5 5 4 4 3 2 2 4 3 4 4 5 4 3 2 3 1 3 2 3 3 2
7 8 17 11 6 4 5 10 4 7 8 18 16 10 14 9 6 6 3 11 14 12 8 8 8 7 4 4 3 3 4 3 3 1 2 2 4 3 4 4 2 2 2 4 4 3 3 3 2
10 6 9 8 5 2 3 7 5 8 17 14 9 9 10 17 12 6 7 8 11 12 10 8 9 7 6 6 4 5 6 3 1 1 1 2 3 0 4 3 1 1 1 2 3 3 2 3 3
8 8 9 5 6 4 5 5 7 6 9 9 12 14 12 11 6 5 7 9 8 11 10 8 8 7 5 3 4 1 2 2 1 1 1 2 4 4 3 2 1 2 2 3 3 3 3 2 4
12 8 5 2 3 2 2 5 9 13 4 8 6 5 9 11 10 10 9 8 10 11 9 7 7 8 5 7 7 5 6 4 2 2 6 7 7 4 3 2 1 3 3 4 4 4 4 2 2
9 2 8 6 4 2 5 7 7 6 11 7 8 10 11 13 12 11 11 12 11 11 8 6 7 6 7 7 7 7 7 5 5 5 4 4 3 4 4 3 2 3 5 5 4 4 4 5 4
4 7 4 6 6 8 4 3 10 3 19 20 18 15 11 12 15 15 14 12 11 9 7 6 7 6 6 7 6 6 7 8 6 3 2 3 2 2 3 3 4 3 4 6 5 4 5 4 3
8 11 8 7 4 8 4 3 8 10 15 23 19 17 14 11 10 12 12 10 10 9 7 7 7 7 6 7 8 7 6 4 3 3 2 2 0 2 3 5 6 7 7 6 5 3 3 4 4
5 4 10 7 1 2 4 1 5 7 14 17 16 15 13 13 12 13 12 9 9 8 8 7 7 7 6 6 5 4 4 5 4 4 3 1 1 3 4 5 5 6 6 6 6 5 6 5 4
6 6 4 4 4 5 6 3 6 7 14 16 16 15 13 11 11 10 10 9 6 7 6 7 6 6 6 6 5 4 4 4 4 3 2 1 2 3 4 5 5 5 6 6 6 4 4 5 4
5 1 5 6 6 8 4 7 8 17 21 24 21 19 17 15 14 13 9 6 8 8 7 7 7 7 7 7 5 6 3 4 3 3 2 1 1 3 4 5 5 5 4 4 5 5 5 6 6
8 8 8 7 6 3 4 9 3 15 16 18 16 16 16 16 16 15 14 11 7 8 7 7 7 7 6 6 5 4 3 2 1 3 2 3 1 3 4 4 3 3 2 0 0 3 5 5 6
Wind_Direction
167 179 72 32 52 60 346 265 323 138 305 319 197 100 110 40 158 208 307 144 136 141 160 157 147 140 137 133 133 131 128 127 122 115 111 108 101 95 92 85 78 71 65 59 52 44 37 27 18
193 132 40 62 84 31 289 283 269 33 236 282 80 65 49 83 70 114 96 142 152 140 151 148 143 137 137 139 137 137 134 130 125 122 118 109 102 99 92 84 73 64 66 64 60 54 33 17 3
261 86 90 105 109 172 220 218 25 345 311 296 8 79 82 93 115 146 132 143 134 131 140 153 145 142 144 143 140 137 135 134 132 126 126 124 122 115 108 104 91 84 83 73 52 27 4 346 331
135 21 21 102 204 268 227 94 111 3 324 313 106 67 62 194 140 144 142 145 135 137 137 148 146 148 146 143 141 141 140 137 139 142 143 142 140 136 135 136 116 106 102 97 219 245 267 276 282
39 64 53 37 292 148 240 124 141 71 355 335 346 161 97 71 117 134 144 147 143 138 146 151 147 146 145 147 143 144 140 141 152 153 154 156 158 158 164 163 162 176 197 216 219 229 254 276 285
12 96 56 257 70 172 257 275 45 84 15 310 353 337 155 130 133 150 152 157 146 145 146 150 146 146 147 150 142 143 148 153 162 161 165 173 177 182 191 196 203 209 217 221 225 236 259 281 291
136 86 216 238 191 181 236 123 121 124 155 345 316 307 240 136 160 150 151 135 128 139 136 137 140 151 148 145 147 155 157 164 171 177 186 193 194 202 210 218 220 227 233 237 248 261 276 282 293
118 100 315 281 312 252 223 84 139 142 56 74 272 239 257 185 121 133 130 126 130 143 136 139 132 137 151 149 161 164 168 175 186 193 202 208 215 227 233 234 237 240 249 247 254 267 274 290 314
114 66 276 255 230 174 180 148 172 173 154 168 196 270 163 158 110 118 125 112 128 162 157 155 156 162 162 167 177 178 184 188 195 201 212 216 224 241 243 243 242 246 252 256 265 277 294 319 339
111 121 240 212 282 164 187 158 154 178 206 91 52 42 157 159 132 145 159 166 178 173 174 178 168 173 172 177 183 187 191 192 194 209 221 220 227 244 252 261 263 256 269 293 329 20 22 17 359
210 188 246 266 241 146 174 167 175 154 35 143 173 164 214 174 170 172 177 173 180 182 167 185 176 174 174 182 167 186 183 190 205 208 209 238 263 286 3 351 332 10 9 28 27 3 7 6 356
235 237 227 276 223 134 158 155 168 203 192 185 192 171 150 189 199 195 178 184 180 178 172 180 176 170 182 143 164 186 208 195 194 202 189 136 87 52 43 28 28 45 29 17 357 353 359 14 9
190 271 277 268 254 222 144 183 190 209 193 200 205 236 173 170 215 281 222 189 178 177 178 175 172 171 167 159 154 183 217 212 196 113 98 109 87 72 61 44 56 38 14 18 10 16 17 10 359
248 276 268 288 277 159 146 173 146 236 191 197 203 213 207 163 147 340 220 202 171 170 179 152 174 172 155 163 158 189 171 148 108 115 119 87 87 84 62 54 37 22 15 20 36 23 17 5 350
259 336 327 276 273 92 113 80 236 176 182 200 217 213 200 171 85 46 122 79 79 71 55 157 152 152 165 157 154 162 147 119 115 97 70 77 80 79 75 66 43 17 20 34 33 21 18 3 346
344 43 333 281 306 279 130 250 234 182 174 212 222 210 186 74 98 74 118 109 98 100 108 347 198 157 144 148 133 127 117 111 97 89 91 84 69 66 69 60 36 354 28 32 40 12 355 347 344
356 262 307 314 333 269 150 260 148 175 187 206 218 248 120 121 115 134 256 128 134 148 130 157 156 187 133 109 87 94 104 103 107 99 89 82 89 75 62 69 40 45 33 36 16 344 353 330 329
253 336 298 273 286 218 240 239 146 185 191 201 159 171 152 156 149 184 205 158 94 59 36 98 92 55 77 83 83 86 86 76 70 90 87 77 76 88 92 74 68 46 41 13 347 322 319 277 294
243 256 277 287 283 271 230 217 228 196 201 171 151 159 163 158 170 180 341 82 88 64 57 31 102 109 94 107 108 80 104 92 29 32 109 122 134 103 100 89 90 35 51 308 341 310 324 306 297
263 269 278 279 255 7 1 268 265 124 183 154 146 139 150 142 164 139 122 93 88 75 62 50 67 69 47 72 97 138 125 97 122 71 89 113 92 121 115 108 108 49 30 351 334 330 307 273 307
258 220 257 243 326 334 55 337 310 44 107 119 121 138 168 157 161 139 116 88 78 78 65 65 67 60 51 66 101 92 89 89 60 73 12 233 155 36 92 114 136 103 79 297 286 288 302 286 287
267 227 254 335 43 284 82 271 310 91 83 118 148 168 161 152 140 127 103 88 97 86 75 70 71 77 62 112 92 99 147 129 108 99 310 348 2 359 64 110 143 204 234 274 275 293 275 292 295
249 265 252 318 98 36 52 96 267 130 125 159 164 173 157 147 143 135 135 121 100 98 91 72 75 74 61 82 80 92 88 80 111 80 50 23 7 36 83 59 352 235 257 261 270 290 291 273 260
260 213 32 37 55 351 249 139 277 188 174 171 169 169 162 144 128 115 112 104 102 95 99 100 94 80 77 84 88 102 119 120 77 44 40 27 23 28 23 33 355 273 266 276 278 281 277 273 250
174 63 348 343 352 243 8 17 235 225 169 170 164 160 163 148 137 138 135 131 126 122 124 121 116 112 103 97 91 91 76 83 98 93 81 61 19 341 313 316 313 292 280 280 283 273 282 298 335
202 153 156 210 222 270 334 264 280 303 168 151 150 153 150 145 145 142 136 130 130 133 141 131 135 136 122 92 78 80 100 110 126 130 126 113 68 295 307 327 327 316 305 308 307 297 338 1 354
225 151 188 146 41 6 232 141 32 62 102 129 139 151 160 157 154 141 131 140 139 138 147 145 127 95 98 112 112 113 131 132 124 114 115 91 350 321 344 340 338 348 4 16 30 44 23 9 337
189 176 93 9 205 260 275 215 202 170 148 152 161 164 162 155 140 136 131 141 137 140 131 127 136 153 159 153 151 143 156 138 136 132 127 108 324 340 337 337 358 41 52 47 47 15 337 337 314
315 300 63 125 139 188 262 263 215 181 175 171 173 169 157 148 141 134 130 139 146 140 141 154 157 152 152 147 150 139 163 164 162 152 172 149 240 316 338 334 33 93 70 45 35 360 335 335 326
183 232 180 146 229 204 185 267 235 176 179 175 155 139 139 143 138 139 147 140 141 154 153 158 157 145 152 152 142 157 172 163 182 183 194 180 278 304 321 353 115 130 118 133 50 327 320 322 311